Location: ???????????
(55.5758°N, 38.4970°E)
Time: 16:42:44
(UTC+00:00)

SL-16 R/B - Pass Details

Date: 15 November 2025
Orbit: 840 x 847 km, 71.0° (Epoch: 14 December)

Event Time Altitude Azimuth Distance (km) Brightness Sun altitude
Rises 02:52:56 0° 204° (SSW) 3,399 5.2 -17.7°
Reaches altitude 10° 02:55:23 10° 202° (SSW) 2,468 4.5 -17.3°
Maximum altitude 03:01:01 72° 120° (ESE) 895 2.5 -16.5°
Drops below altitude 10° 03:06:42 10° 37° (NE) 2,484 5.0 -15.7°
Sets 03:09:10 0° 35° (NE) 3,422 5.7 -15.4°
